This is the latest recevied weather packets stored in our database for station/object KP4FJC. If no packets are shown the sender has not sent any weather packets the latest 10 day(s).
| Time | Temp. | Humidity | Pressure | Rain* | Wind** | Luminosity | Snow |
|---|---|---|---|---|---|---|---|
| 1777897966 | 28.33° C | 76% | 1018.4 hPa | 0 mm | - | 423 W/m² | - |
| 1777897662 | 27.78° C | 78% | 1018.4 hPa | 0 mm | - | 367 W/m² | - |
| 1777897358 | 27.78° C | 77% | 1018.5 hPa | 0 mm | - | 378 W/m² | - |
| 1777897054 | 28.33° C | 76% | 1018.4 hPa | 0 mm | - | 365 W/m² | - |
| 1777896751 | 28.33° C | 77% | 1018.4 hPa | 0 mm | - | 336 W/m² | - |
| 1777896449 | 28.33° C | 76% | 1018.6 hPa | 0 mm | - | 313 W/m² | - |
| 1777896146 | 27.78° C | 78% | 1018.5 hPa | 0 mm | - | 295 W/m² | - |
| 1777895844 | 27.78° C | 78% | 1018.5 hPa | 0 mm | - | 276 W/m² | - |
| 1777895541 | 27.78° C | 77% | 1018.4 hPa | 0 mm | - | 253 W/m² | - |
| 1777895238 | 28.33° C | 76% | 1018.6 hPa | 0 mm | - | 229 W/m² | - |
| 1777894936 | 27.78° C | 77% | 1018.5 hPa | 0 mm | - | 210 W/m² | - |
| 1777894633 | 27.78° C | 78% | 1018.3 hPa | 0 mm | - | 210 W/m² | - |
| 1777894330 | 27.78° C | 77% | 1018.4 hPa | 0 mm | - | 156 W/m² | - |
| 1777894027 | 27.78° C | 77% | 1018.2 hPa | 0 mm | - | 158 W/m² | - |
| 1777893723 | 27.78° C | 78% | 1018.4 hPa | 0 mm | - | 140 W/m² | - |
| 1777893420 | 27.22° C | 81% | 1018.1 hPa | 0 mm | - | 119 W/m² | - |
| 1777893116 | 26.11° C | 83% | 1018.4 hPa | 0 mm | - | 106 W/m² | - |
| 1777892813 | 26.11° C | 84% | 1018.4 hPa | 0 mm | - | 93 W/m² | - |
| 1777892509 | 26.67° C | 83% | 1018.2 hPa | 0 mm | - | 82 W/m² | - |
| 1777892205 | 26.67° C | 82% | 1018.3 hPa | 0 mm | - | 73 W/m² | - |
| 1777891902 | 26.11° C | 84% | 1018.3 hPa | 0 mm | - | 66 W/m² | - |
| 1777891599 | 25.56° C | 86% | 1018.1 hPa | 0 mm | - | 57 W/m² | - |
| 1777891295 | 25° C | 88% | 1018.1 hPa | 0 mm | - | 49 W/m² | - |
| 1777890990 | 25° C | 89% | 1018 hPa | 0 mm | - | 38 W/m² | - |
| 1777890685 | 24.44° C | 91% | 1017.9 hPa | 0 mm | - | 32 W/m² | - |
* Rain latest hour (hover to see other rain measurements)
** Current wind speed in m/s (hover to see current wind gust speed)